Year,Month,Day,Hour,Minute,Value (Times are PST for insolation in W/m^2)
2021,05,25,00,00,0.00
2021,05,25,00,01,0.00
2021,05,25,00,02,0.00
2021,05,25,00,03,0.00
2021,05,25,00,04,0.00
2021,05,25,00,05,0.00
2021,05,25,00,06,0.00
2021,05,25,00,07,0.00
2021,05,25,00,08,0.00
2021,05,25,00,09,0.00
2021,05,25,00,10,0.00
2021,05,25,00,11,0.00
2021,05,25,00,12,0.00
2021,05,25,00,13,0.00
2021,05,25,00,14,0.00
2021,05,25,00,15,0.00
2021,05,25,00,16,0.00
2021,05,25,00,17,0.00
2021,05,25,00,18,0.00
2021,05,25,00,19,0.00
2021,05,25,00,20,0.00
2021,05,25,00,21,0.00
2021,05,25,00,22,0.00
2021,05,25,00,23,0.00
2021,05,25,00,24,0.00
2021,05,25,00,25,0.00
2021,05,25,00,26,0.00
2021,05,25,00,27,0.00
2021,05,25,00,28,0.00
2021,05,25,00,29,0.00
2021,05,25,00,30,0.00
2021,05,25,00,31,0.00
2021,05,25,00,32,0.00
2021,05,25,00,33,0.00
2021,05,25,00,34,0.00
2021,05,25,00,35,0.00
2021,05,25,00,36,0.00
2021,05,25,00,37,0.00
2021,05,25,00,38,0.00
2021,05,25,00,39,0.00
2021,05,25,00,40,0.00
2021,05,25,00,41,0.00
2021,05,25,00,42,0.00
2021,05,25,00,43,0.00
2021,05,25,00,44,0.00
2021,05,25,00,45,0.00
2021,05,25,00,46,0.00
2021,05,25,00,47,0.00
2021,05,25,00,48,0.00
2021,05,25,00,49,0.00
2021,05,25,00,50,0.00
2021,05,25,00,51,0.00
2021,05,25,00,52,0.00
2021,05,25,00,53,0.00
2021,05,25,00,54,0.00
2021,05,25,00,55,0.00
2021,05,25,00,56,0.00
2021,05,25,00,57,0.00
2021,05,25,00,58,0.00
2021,05,25,00,59,0.00
2021,05,25,01,00,0.00
2021,05,25,01,01,0.00
2021,05,25,01,02,0.00
2021,05,25,01,03,0.00
2021,05,25,01,04,0.00
2021,05,25,01,05,0.00
2021,05,25,01,06,0.00
2021,05,25,01,07,0.00
2021,05,25,01,08,0.00
2021,05,25,01,09,0.00
2021,05,25,01,10,0.00
2021,05,25,01,11,0.00
2021,05,25,01,12,0.00
2021,05,25,01,13,0.00
2021,05,25,01,14,0.00
2021,05,25,01,15,0.00
2021,05,25,01,16,0.00
2021,05,25,01,17,0.00
2021,05,25,01,18,0.00
2021,05,25,01,19,0.00
2021,05,25,01,20,0.00
2021,05,25,01,21,0.00
2021,05,25,01,22,0.00
2021,05,25,01,23,0.00
2021,05,25,01,24,0.00
2021,05,25,01,25,0.00
2021,05,25,01,26,0.00
2021,05,25,01,27,0.00
2021,05,25,01,28,0.00
2021,05,25,01,29,0.00
2021,05,25,01,30,0.00
2021,05,25,01,31,0.00
2021,05,25,01,32,0.00
2021,05,25,01,33,0.00
2021,05,25,01,34,0.00
2021,05,25,01,35,0.00
2021,05,25,01,36,0.00
2021,05,25,01,37,0.00
2021,05,25,01,38,0.00
2021,05,25,01,39,0.00
2021,05,25,01,40,0.00
2021,05,25,01,41,0.00
2021,05,25,01,42,0.00
2021,05,25,01,43,0.00
2021,05,25,01,44,0.00
2021,05,25,01,45,0.00
2021,05,25,01,46,0.00
2021,05,25,01,47,0.00
2021,05,25,01,48,0.00
2021,05,25,01,49,0.00
2021,05,25,01,50,0.00
2021,05,25,01,51,0.00
2021,05,25,01,52,0.00
2021,05,25,01,53,0.00
2021,05,25,01,54,0.00
2021,05,25,01,55,0.00
2021,05,25,01,56,0.00
2021,05,25,01,57,0.00
2021,05,25,01,58,0.00
2021,05,25,01,59,0.00
2021,05,25,02,00,0.00
2021,05,25,02,01,0.00
2021,05,25,02,02,0.00
2021,05,25,02,03,0.00
2021,05,25,02,04,0.00
2021,05,25,02,05,0.00
2021,05,25,02,06,0.00
2021,05,25,02,07,0.00
2021,05,25,02,08,0.00
2021,05,25,02,09,0.00
2021,05,25,02,10,0.00
2021,05,25,02,11,0.00
2021,05,25,02,12,0.00
2021,05,25,02,13,0.00
2021,05,25,02,14,0.00
2021,05,25,02,15,0.00
2021,05,25,02,16,0.00
2021,05,25,02,17,0.00
2021,05,25,02,18,0.00
2021,05,25,02,19,0.00
2021,05,25,02,20,0.00
2021,05,25,02,21,0.00
2021,05,25,02,22,0.00
2021,05,25,02,23,0.00
2021,05,25,02,24,0.00
2021,05,25,02,25,0.00
2021,05,25,02,26,0.00
2021,05,25,02,27,0.00
2021,05,25,02,28,0.00
2021,05,25,02,29,0.00
2021,05,25,02,30,0.00
2021,05,25,02,31,0.00
2021,05,25,02,32,0.00
2021,05,25,02,33,0.00
2021,05,25,02,34,0.00
2021,05,25,02,35,0.00
2021,05,25,02,36,0.00
2021,05,25,02,37,0.00
2021,05,25,02,38,0.00
2021,05,25,02,39,0.00
2021,05,25,02,40,0.00
2021,05,25,02,41,0.00
2021,05,25,02,42,0.00
2021,05,25,02,43,0.00
2021,05,25,02,44,0.00
2021,05,25,02,45,0.00
2021,05,25,02,46,0.00
2021,05,25,02,47,0.00
2021,05,25,02,48,0.00
2021,05,25,02,49,0.00
2021,05,25,02,50,0.00
2021,05,25,02,51,0.00
2021,05,25,02,52,0.00
2021,05,25,02,53,0.00
2021,05,25,02,54,0.00
2021,05,25,02,55,0.00
2021,05,25,02,56,0.00
2021,05,25,02,57,0.00
2021,05,25,02,58,0.00
2021,05,25,02,59,0.00
2021,05,25,03,00,0.00
2021,05,25,03,01,0.00
2021,05,25,03,02,0.00
2021,05,25,03,03,0.00
2021,05,25,03,04,0.00
2021,05,25,03,05,0.00
2021,05,25,03,06,0.00
2021,05,25,03,07,0.00
2021,05,25,03,08,0.00
2021,05,25,03,09,0.00
2021,05,25,03,10,0.00
2021,05,25,03,11,0.00
2021,05,25,03,12,0.00
2021,05,25,03,13,0.00
2021,05,25,03,14,0.00
2021,05,25,03,15,0.00
2021,05,25,03,16,0.00
2021,05,25,03,17,0.00
2021,05,25,03,18,0.00
2021,05,25,03,19,0.00
2021,05,25,03,20,0.00
2021,05,25,03,21,0.00
2021,05,25,03,22,0.00
2021,05,25,03,23,0.00
2021,05,25,03,24,0.00
2021,05,25,03,25,0.00
2021,05,25,03,26,0.00
2021,05,25,03,27,0.00
2021,05,25,03,28,0.00
2021,05,25,03,29,0.00
2021,05,25,03,30,0.00
2021,05,25,03,31,0.00
2021,05,25,03,32,0.00
2021,05,25,03,33,0.00
2021,05,25,03,34,0.00
2021,05,25,03,35,0.00
2021,05,25,03,36,0.00
2021,05,25,03,37,0.00
2021,05,25,03,38,0.00
2021,05,25,03,39,0.00
2021,05,25,03,40,0.00
2021,05,25,03,41,0.00
2021,05,25,03,42,0.00
2021,05,25,03,43,0.00
2021,05,25,03,44,0.00
2021,05,25,03,45,0.00
2021,05,25,03,46,0.00
2021,05,25,03,47,0.00
2021,05,25,03,48,0.00
2021,05,25,03,49,0.00
2021,05,25,03,50,0.00
2021,05,25,03,51,0.00
2021,05,25,03,52,0.00
2021,05,25,03,53,0.00
2021,05,25,03,54,0.00
2021,05,25,03,55,0.00
2021,05,25,03,56,0.00
2021,05,25,03,57,0.00
2021,05,25,03,58,0.00
2021,05,25,03,59,0.00
2021,05,25,04,00,0.00
2021,05,25,04,01,0.00
2021,05,25,04,02,0.00
2021,05,25,04,03,0.00
2021,05,25,04,04,0.00
2021,05,25,04,05,0.00
2021,05,25,04,06,0.00
2021,05,25,04,07,0.00
2021,05,25,04,08,0.00
2021,05,25,04,09,0.00
2021,05,25,04,10,0.00
2021,05,25,04,11,0.00
2021,05,25,04,12,0.00
2021,05,25,04,13,0.00
2021,05,25,04,14,0.00
2021,05,25,04,15,0.00
2021,05,25,04,16,0.00
2021,05,25,04,17,0.00
2021,05,25,04,18,0.00
2021,05,25,04,19,0.00
2021,05,25,04,20,0.00
2021,05,25,04,21,0.00
2021,05,25,04,22,0.00
2021,05,25,04,23,0.00
2021,05,25,04,24,0.00
2021,05,25,04,25,0.00
2021,05,25,04,26,0.00
2021,05,25,04,27,0.00
2021,05,25,04,28,0.00
2021,05,25,04,29,0.00
2021,05,25,04,30,0.00
2021,05,25,04,31,0.00
2021,05,25,04,32,0.00
2021,05,25,04,33,0.00
2021,05,25,04,34,0.00
2021,05,25,04,35,0.00
2021,05,25,04,36,0.00
2021,05,25,04,37,0.00
2021,05,25,04,38,0.00
2021,05,25,04,39,0.00
2021,05,25,04,40,0.00
2021,05,25,04,41,0.00
2021,05,25,04,42,0.00
2021,05,25,04,43,0.00
2021,05,25,04,44,0.00
2021,05,25,04,45,0.00
2021,05,25,04,46,0.00
2021,05,25,04,47,0.00
2021,05,25,04,48,0.00
2021,05,25,04,49,0.00
2021,05,25,04,50,0.00
2021,05,25,04,51,0.00
2021,05,25,04,52,0.00
2021,05,25,04,53,0.00
2021,05,25,04,54,0.00
2021,05,25,04,55,0.00
2021,05,25,04,56,0.00
2021,05,25,04,57,0.00
2021,05,25,04,58,0.00
2021,05,25,04,59,0.00
2021,05,25,05,00,0.00
2021,05,25,05,01,0.00
2021,05,25,05,02,0.00
2021,05,25,05,03,0.00
2021,05,25,05,04,0.00
2021,05,25,05,05,0.00
2021,05,25,05,06,0.00
2021,05,25,05,07,0.00
2021,05,25,05,08,0.00
2021,05,25,05,09,0.00
2021,05,25,05,10,0.00
2021,05,25,05,11,0.00
2021,05,25,05,12,0.00
2021,05,25,05,13,0.00
2021,05,25,05,14,0.00
2021,05,25,05,15,0.00
2021,05,25,05,16,0.00
2021,05,25,05,17,0.00
2021,05,25,05,18,0.00
2021,05,25,05,19,0.00
2021,05,25,05,20,0.00
2021,05,25,05,21,0.00
2021,05,25,05,22,0.00
2021,05,25,05,23,0.00
2021,05,25,05,24,0.00
2021,05,25,05,25,0.00
2021,05,25,05,26,0.00
2021,05,25,05,27,0.00
2021,05,25,05,28,0.00
2021,05,25,05,29,0.00
2021,05,25,05,30,0.00
2021,05,25,05,31,0.00
2021,05,25,05,32,0.00
2021,05,25,05,33,0.00
2021,05,25,05,34,0.00
2021,05,25,05,35,0.00
2021,05,25,05,36,0.00
2021,05,25,05,37,0.00
2021,05,25,05,38,0.00
2021,05,25,05,39,0.00
2021,05,25,05,40,0.00
2021,05,25,05,41,0.00
2021,05,25,05,42,0.00
2021,05,25,05,43,0.00
2021,05,25,05,44,0.00
2021,05,25,05,45,0.00
2021,05,25,05,46,3.40
2021,05,25,05,47,5.00
2021,05,25,05,48,5.00
2021,05,25,05,49,5.00
2021,05,25,05,50,5.00
2021,05,25,05,51,5.00
2021,05,25,05,52,5.00
2021,05,25,05,53,5.00
2021,05,25,05,54,6.20
2021,05,25,05,55,7.00
2021,05,25,05,56,7.00
2021,05,25,05,57,7.00
2021,05,25,05,58,7.30
2021,05,25,05,59,9.00
2021,05,25,06,00,9.00
2021,05,25,06,01,9.00
2021,05,25,06,02,9.00
2021,05,25,06,03,10.40
2021,05,25,06,04,11.00
2021,05,25,06,05,11.00
2021,05,25,06,06,11.00
2021,05,25,06,07,11.00
2021,05,25,06,08,11.00
2021,05,25,06,09,11.00
2021,05,25,06,10,11.00
2021,05,25,06,11,11.00
2021,05,25,06,12,11.00
2021,05,25,06,13,11.00
2021,05,25,06,14,11.00
2021,05,25,06,15,11.10
2021,05,25,06,16,12.00
2021,05,25,06,17,12.00
2021,05,25,06,18,12.00
2021,05,25,06,19,12.00
2021,05,25,06,20,12.00
2021,05,25,06,21,13.50
2021,05,25,06,22,14.00
2021,05,25,06,23,14.00
2021,05,25,06,24,14.00
2021,05,25,06,25,14.00
2021,05,25,06,26,14.00
2021,05,25,06,27,14.90
2021,05,25,06,28,16.00
2021,05,25,06,29,17.40
2021,05,25,06,30,18.00
2021,05,25,06,31,18.00
2021,05,25,06,32,19.00
2021,05,25,06,33,19.00
2021,05,25,06,34,19.00
2021,05,25,06,35,19.00
2021,05,25,06,36,19.00
2021,05,25,06,37,19.00
2021,05,25,06,38,18.30
2021,05,25,06,39,18.00
2021,05,25,06,40,18.00
2021,05,25,06,41,18.00
2021,05,25,06,42,18.00
2021,05,25,06,43,18.30
2021,05,25,06,44,19.00
2021,05,25,06,45,19.00
2021,05,25,06,46,20.30
2021,05,25,06,47,21.00
2021,05,25,06,48,22.80
2021,05,25,06,49,23.20
2021,05,25,06,50,25.00
2021,05,25,06,51,25.30
2021,05,25,06,52,26.70
2021,05,25,06,53,28.00
2021,05,25,06,54,29.30
2021,05,25,06,55,30.00
2021,05,25,06,56,30.00
2021,05,25,06,57,28.20
2021,05,25,06,58,25.90
2021,05,25,06,59,24.60
2021,05,25,07,00,22.40
2021,05,25,07,01,21.00
2021,05,25,07,02,21.00
2021,05,25,07,03,21.00
2021,05,25,07,04,19.50
2021,05,25,07,05,19.00
2021,05,25,07,06,19.10
2021,05,25,07,07,21.00
2021,05,25,07,08,21.50
2021,05,25,07,09,23.00
2021,05,25,07,10,23.00
2021,05,25,07,11,23.00
2021,05,25,07,12,23.00
2021,05,25,07,13,24.50
2021,05,25,07,14,23.20
2021,05,25,07,15,23.00
2021,05,25,07,16,22.70
2021,05,25,07,17,21.00
2021,05,25,07,18,21.00
2021,05,25,07,19,21.00
2021,05,25,07,20,21.00
2021,05,25,07,21,22.40
2021,05,25,07,22,23.00
2021,05,25,07,23,24.90
2021,05,25,07,24,25.10
2021,05,25,07,25,26.00
2021,05,25,07,26,26.00
2021,05,25,07,27,26.00
2021,05,25,07,28,26.00
2021,05,25,07,29,26.00
2021,05,25,07,30,27.50
2021,05,25,07,31,29.70
2021,05,25,07,32,30.20
2021,05,25,07,33,32.00
2021,05,25,07,34,32.00
2021,05,25,07,35,32.40
2021,05,25,07,36,33.00
2021,05,25,07,37,33.00
2021,05,25,07,38,33.00
2021,05,25,07,39,33.00
2021,05,25,07,40,33.00
2021,05,25,07,41,33.00
2021,05,25,07,42,33.00
2021,05,25,07,43,33.00
2021,05,25,07,44,33.00
2021,05,25,07,45,32.50
2021,05,25,07,46,32.00
2021,05,25,07,47,32.00
2021,05,25,07,48,30.30
2021,05,25,07,49,30.00
2021,05,25,07,50,30.00
2021,05,25,07,51,29.50
2021,05,25,07,52,28.00
2021,05,25,07,53,28.00
2021,05,25,07,54,26.80
2021,05,25,07,55,26.00
2021,05,25,07,56,26.00
2021,05,25,07,57,25.10
2021,05,25,07,58,24.80
2021,05,25,07,59,23.00
2021,05,25,08,00,22.40
2021,05,25,08,01,21.80
2021,05,25,08,02,23.00
2021,05,25,08,03,24.90
2021,05,25,08,04,26.00
2021,05,25,08,05,27.60
2021,05,25,08,06,29.90
2021,05,25,08,07,32.50
2021,05,25,08,08,35.50
2021,05,25,08,09,37.70
2021,05,25,08,10,39.50
2021,05,25,08,11,41.10
2021,05,25,08,12,43.30
2021,05,25,08,13,45.60
2021,05,25,08,14,46.80
2021,05,25,08,15,45.90
2021,05,25,08,16,44.00
2021,05,25,08,17,44.60
2021,05,25,08,18,47.30
2021,05,25,08,19,50.10
2021,05,25,08,20,49.80
2021,05,25,08,21,46.90
2021,05,25,08,22,42.80
2021,05,25,08,23,43.80
2021,05,25,08,24,46.20
2021,05,25,08,25,47.00
2021,05,25,08,26,46.00
2021,05,25,08,27,43.10
2021,05,25,08,28,40.40
2021,05,25,08,29,37.70
2021,05,25,08,30,37.00
2021,05,25,08,31,37.00
2021,05,25,08,32,37.20
2021,05,25,08,33,40.60
2021,05,25,08,34,45.30
2021,05,25,08,35,51.60
2021,05,25,08,36,59.20
2021,05,25,08,37,68.20
2021,05,25,08,38,78.20
2021,05,25,08,39,81.00
2021,05,25,08,40,91.70
2021,05,25,08,41,98.20
2021,05,25,08,42,102.60
2021,05,25,08,43,106.30
2021,05,25,08,44,110.60
2021,05,25,08,45,114.60
2021,05,25,08,46,118.40
2021,05,25,08,47,122.20
2021,05,25,08,48,126.40
2021,05,25,08,49,133.60
2021,05,25,08,50,145.30
2021,05,25,08,51,159.20
2021,05,25,08,52,171.80
2021,05,25,08,53,176.90
2021,05,25,08,54,176.90
2021,05,25,08,55,171.20
2021,05,25,08,56,162.40
2021,05,25,08,57,152.40
2021,05,25,08,58,143.70
2021,05,25,08,59,140.60
2021,05,25,09,00,139.00
2021,05,25,09,01,137.50
2021,05,25,09,02,131.70
2021,05,25,09,03,127.40
2021,05,25,09,04,125.70
2021,05,25,09,05,126.60
2021,05,25,09,06,129.70
2021,05,25,09,07,134.50
2021,05,25,09,08,140.90
2021,05,25,09,09,150.50
2021,05,25,09,10,160.90
2021,05,25,09,11,169.90
2021,05,25,09,12,175.80
2021,05,25,09,13,178.70
2021,05,25,09,14,180.70
2021,05,25,09,15,180.90
2021,05,25,09,16,178.60
2021,05,25,09,17,174.90
2021,05,25,09,18,171.60
2021,05,25,09,19,169.20
2021,05,25,09,20,164.70
2021,05,25,09,21,159.60
2021,05,25,09,22,155.80
2021,05,25,09,23,153.20
2021,05,25,09,24,150.80
2021,05,25,09,25,149.00
2021,05,25,09,26,149.00
2021,05,25,09,27,149.00
2021,05,25,09,28,150.10
2021,05,25,09,29,152.30
2021,05,25,09,30,155.20
2021,05,25,09,31,160.70
2021,05,25,09,32,166.50
2021,05,25,09,33,172.60
2021,05,25,09,34,176.00
2021,05,25,09,35,176.70
2021,05,25,09,36,178.50
2021,05,25,09,37,180.20
2021,05,25,09,38,182.30
2021,05,25,09,39,186.80
2021,05,25,09,40,194.30
2021,05,25,09,41,202.70
2021,05,25,09,42,210.40
2021,05,25,09,43,218.80
2021,05,25,09,44,228.80
2021,05,25,09,45,237.50
2021,05,25,09,46,245.40
2021,05,25,09,47,251.40
2021,05,25,09,48,256.20
2021,05,25,09,49,257.90
2021,05,25,09,50,260.50
2021,05,25,09,51,266.50
2021,05,25,09,52,275.50
2021,05,25,09,53,288.90
2021,05,25,09,54,303.00
2021,05,25,09,55,313.10
2021,05,25,09,56,321.20
2021,05,25,09,57,328.90
2021,05,25,09,58,333.80
2021,05,25,09,59,333.20
2021,05,25,10,00,327.20
2021,05,25,10,01,319.50
2021,05,25,10,02,313.10
2021,05,25,10,03,312.20
2021,05,25,10,04,315.10
2021,05,25,10,05,319.20
2021,05,25,10,06,324.20
2021,05,25,10,07,330.60
2021,05,25,10,08,337.00
2021,05,25,10,09,342.60
2021,05,25,10,10,346.70
2021,05,25,10,11,348.90
2021,05,25,10,12,353.00
2021,05,25,10,13,363.80
2021,05,25,10,14,401.70
2021,05,25,10,15,485.30
2021,05,25,10,16,480.40
2021,05,25,10,17,413.00
2021,05,25,10,18,415.00
2021,05,25,10,19,362.50
2021,05,25,10,20,358.60
2021,05,25,10,21,352.40
2021,05,25,10,22,344.20
2021,05,25,10,23,347.50
2021,05,25,10,24,352.10
2021,05,25,10,25,353.60
2021,05,25,10,26,358.30
2021,05,25,10,27,364.80
2021,05,25,10,28,375.30
2021,05,25,10,29,393.60
2021,05,25,10,30,433.20
2021,05,25,10,31,448.00
2021,05,25,10,32,584.40
2021,05,25,10,33,615.00
2021,05,25,10,34,595.00
2021,05,25,10,35,527.20
2021,05,25,10,36,538.20
2021,05,25,10,37,485.20
2021,05,25,10,38,431.20
2021,05,25,10,39,386.80
2021,05,25,10,40,360.30
2021,05,25,10,41,353.20
2021,05,25,10,42,351.70
2021,05,25,10,43,361.00
2021,05,25,10,44,407.60
2021,05,25,10,45,431.00
2021,05,25,10,46,348.20
2021,05,25,10,47,282.10
2021,05,25,10,48,275.10
2021,05,25,10,49,269.50
2021,05,25,10,50,259.50
2021,05,25,10,51,255.60
2021,05,25,10,52,262.40
2021,05,25,10,53,277.50
2021,05,25,10,54,283.00
2021,05,25,10,55,272.70
2021,05,25,10,56,265.30
2021,05,25,10,57,264.80
2021,05,25,10,58,264.20
2021,05,25,10,59,268.40
2021,05,25,11,00,276.50
2021,05,25,11,01,278.90
2021,05,25,11,02,283.90
2021,05,25,11,03,291.20
2021,05,25,11,04,299.20
2021,05,25,11,05,305.20
2021,05,25,11,06,306.00
2021,05,25,11,07,305.60
2021,05,25,11,08,299.40
2021,05,25,11,09,303.20
2021,05,25,11,10,310.60
2021,05,25,11,11,316.40
2021,05,25,11,12,321.00
2021,05,25,11,13,325.90
2021,05,25,11,14,330.90
2021,05,25,11,15,338.30
2021,05,25,11,16,357.20
2021,05,25,11,17,388.60
2021,05,25,11,18,431.20
2021,05,25,11,19,498.00
2021,05,25,11,20,552.00
2021,05,25,11,21,737.90
2021,05,25,11,22,838.00
2021,05,25,11,23,838.00
2021,05,25,11,24,827.00
2021,05,25,11,25,629.00
2021,05,25,11,26,629.00
2021,05,25,11,27,847.50
2021,05,25,11,28,1251.80
2021,05,25,11,29,1243.30
2021,05,25,11,30,1213.00
2021,05,25,11,31,1213.00
2021,05,25,11,32,1178.10
2021,05,25,11,33,1174.00
2021,05,25,11,34,1174.00
2021,05,25,11,35,1036.30
2021,05,25,11,36,763.60
2021,05,25,11,37,802.00
2021,05,25,11,38,893.60
2021,05,25,11,39,920.50
2021,05,25,11,40,955.20
2021,05,25,11,41,952.70
2021,05,25,11,42,970.80
2021,05,25,11,43,1083.00
2021,05,25,11,44,1083.00
2021,05,25,11,45,1083.00
2021,05,25,11,46,1091.40
2021,05,25,11,47,1141.20
2021,05,25,11,48,1164.00
2021,05,25,11,49,759.80
2021,05,25,11,50,684.00
2021,05,25,11,51,826.40
2021,05,25,11,52,1396.00
2021,05,25,11,53,1396.00
2021,05,25,11,54,1396.00
2021,05,25,11,55,1043.80
2021,05,25,11,56,809.00
2021,05,25,11,57,989.00
2021,05,25,11,58,944.00
2021,05,25,11,59,1021.00
2021,05,25,12,00,983.30
2021,05,25,12,01,842.00
2021,05,25,12,02,842.00
2021,05,25,12,03,842.00
2021,05,25,12,04,842.00
2021,05,25,12,05,842.00
2021,05,25,12,06,666.00
2021,05,25,12,07,633.00
2021,05,25,12,08,679.90
2021,05,25,12,09,930.00
2021,05,25,12,10,930.00
2021,05,25,12,11,930.00
2021,05,25,12,12,930.00
2021,05,25,12,13,930.00
2021,05,25,12,14,930.00
2021,05,25,12,15,930.00
2021,05,25,12,16,930.00
2021,05,25,12,17,944.70
2021,05,25,12,18,1018.20
2021,05,25,12,19,1069.00
2021,05,25,12,20,1063.50
2021,05,25,12,21,1050.40
2021,05,25,12,22,1037.20
2021,05,25,12,23,1024.70
2021,05,25,12,24,1021.20
2021,05,25,12,25,1017.40
2021,05,25,12,26,1011.40
2021,05,25,12,27,1004.30
2021,05,25,12,28,1005.80
2021,05,25,12,29,1010.20
2021,05,25,12,30,1007.80
2021,05,25,12,31,1005.00
2021,05,25,12,32,999.10
2021,05,25,12,33,995.20
2021,05,25,12,34,995.00
2021,05,25,12,35,1001.00
2021,05,25,12,36,1021.70
2021,05,25,12,37,1037.80
2021,05,25,12,38,1044.00
2021,05,25,12,39,1046.00
2021,05,25,12,40,1049.90
2021,05,25,12,41,1055.50
2021,05,25,12,42,1064.70
2021,05,25,12,43,1076.50
2021,05,25,12,44,1086.00
2021,05,25,12,45,752.00
2021,05,25,12,46,251.00
2021,05,25,12,47,251.00
2021,05,25,12,48,251.00
2021,05,25,12,49,251.00
2021,05,25,12,50,989.10
2021,05,25,12,51,1032.40
2021,05,25,12,52,1039.70
2021,05,25,12,53,1056.30
2021,05,25,12,54,1068.30
2021,05,25,12,55,1078.90
2021,05,25,12,56,1078.90
2021,05,25,12,57,1081.90
2021,05,25,12,58,1083.00
2021,05,25,12,59,1075.40
2021,05,25,13,00,1011.00
2021,05,25,13,01,1011.00
2021,05,25,13,02,1011.00
2021,05,25,13,03,1011.00
2021,05,25,13,04,1011.00
2021,05,25,13,05,1011.00
2021,05,25,13,06,1011.00
2021,05,25,13,07,1010.50
2021,05,25,13,08,1002.80
2021,05,25,13,09,1010.70
2021,05,25,13,10,1027.60
2021,05,25,13,11,1042.00
2021,05,25,13,12,751.40
2021,05,25,13,13,540.00
2021,05,25,13,14,540.00
2021,05,25,13,15,980.40
2021,05,25,13,16,1057.70
2021,05,25,13,17,1065.70
2021,05,25,13,18,1048.00
2021,05,25,13,19,791.20
2021,05,25,13,20,406.00
2021,05,25,13,21,406.00
2021,05,25,13,22,406.00
2021,05,25,13,23,998.90
2021,05,25,13,24,1157.00
2021,05,25,13,25,1157.00
2021,05,25,13,26,1136.20
2021,05,25,13,27,1053.00
2021,05,25,13,28,1053.00
2021,05,25,13,29,1053.00
2021,05,25,13,30,1053.00
2021,05,25,13,31,1053.00
2021,05,25,13,32,1053.00
2021,05,25,13,33,259.50
2021,05,25,13,34,250.80
2021,05,25,13,35,249.50
2021,05,25,13,36,252.40
2021,05,25,13,37,266.30
2021,05,25,13,38,279.20
2021,05,25,13,39,293.90
2021,05,25,13,40,340.80
2021,05,25,13,41,400.30
2021,05,25,13,42,447.30
2021,05,25,13,43,1187.20
2021,05,25,13,44,1176.00
2021,05,25,13,45,1176.00
2021,05,25,13,46,1176.00
2021,05,25,13,47,1176.00
2021,05,25,13,48,1103.80
2021,05,25,13,49,1105.80
2021,05,25,13,50,1111.00
2021,05,25,13,51,1121.70
2021,05,25,13,52,1179.00
2021,05,25,13,53,886.60
2021,05,25,13,54,264.80
2021,05,25,13,55,281.00
2021,05,25,13,56,281.00
2021,05,25,13,57,281.00
2021,05,25,13,58,281.00
2021,05,25,13,59,319.50
2021,05,25,14,00,1010.50
2021,05,25,14,01,996.50
2021,05,25,14,02,988.40
2021,05,25,14,03,970.20
2021,05,25,14,04,957.40
2021,05,25,14,05,950.50
2021,05,25,14,06,945.10
2021,05,25,14,07,944.00
2021,05,25,14,08,948.50
2021,05,25,14,09,944.50
2021,05,25,14,10,939.90
2021,05,25,14,11,956.30
2021,05,25,14,12,976.00
2021,05,25,14,13,976.00
2021,05,25,14,14,971.50
2021,05,25,14,15,970.00
2021,05,25,14,16,970.00
2021,05,25,14,17,960.40
2021,05,25,14,18,909.00
2021,05,25,14,19,908.30
2021,05,25,14,20,907.00
2021,05,25,14,21,905.80
2021,05,25,14,22,904.30
2021,05,25,14,23,899.30
2021,05,25,14,24,893.80
2021,05,25,14,25,893.00
2021,05,25,14,26,893.60
2021,05,25,14,27,898.40
2021,05,25,14,28,922.90
2021,05,25,14,29,949.00
2021,05,25,14,30,949.00
2021,05,25,14,31,949.00
2021,05,25,14,32,929.80
2021,05,25,14,33,896.20
2021,05,25,14,34,887.70
2021,05,25,14,35,885.20
2021,05,25,14,36,881.70
2021,05,25,14,37,881.40
2021,05,25,14,38,883.10
2021,05,25,14,39,886.50
2021,05,25,14,40,888.00
2021,05,25,14,41,886.30
2021,05,25,14,42,882.10
2021,05,25,14,43,886.60
2021,05,25,14,44,865.90
2021,05,25,14,45,872.50
2021,05,25,14,46,869.00
2021,05,25,14,47,869.30
2021,05,25,14,48,867.90
2021,05,25,14,49,865.40
2021,05,25,14,50,865.00
2021,05,25,14,51,862.80
2021,05,25,14,52,861.00
2021,05,25,14,53,860.70
2021,05,25,14,54,858.30
2021,05,25,14,55,858.10
2021,05,25,14,56,860.70
2021,05,25,14,57,860.30
2021,05,25,14,58,858.30
2021,05,25,14,59,857.80
2021,05,25,15,00,854.30
2021,05,25,15,01,856.00
2021,05,25,15,02,856.00
2021,05,25,15,03,857.80
2021,05,25,15,04,868.70
2021,05,25,15,05,892.10
2021,05,25,15,06,894.80
2021,05,25,15,07,909.10
2021,05,25,15,08,911.30
2021,05,25,15,09,887.30
2021,05,25,15,10,878.90
2021,05,25,15,11,871.10
2021,05,25,15,12,861.20
2021,05,25,15,13,850.30
2021,05,25,15,14,840.70
2021,05,25,15,15,838.00
2021,05,25,15,16,831.70
2021,05,25,15,17,827.60
2021,05,25,15,18,824.00
2021,05,25,15,19,823.70
2021,05,25,15,20,822.20
2021,05,25,15,21,819.90
2021,05,25,15,22,817.70
2021,05,25,15,23,816.20
2021,05,25,15,24,814.30
2021,05,25,15,25,812.10
2021,05,25,15,26,811.70
2021,05,25,15,27,809.70
2021,05,25,15,28,807.40
2021,05,25,15,29,805.00
2021,05,25,15,30,803.80
2021,05,25,15,31,802.30
2021,05,25,15,32,802.00
2021,05,25,15,33,800.20
2021,05,25,15,34,799.60
2021,05,25,15,35,795.80
2021,05,25,15,36,794.40
2021,05,25,15,37,793.00
2021,05,25,15,38,790.90
2021,05,25,15,39,788.30
2021,05,25,15,40,786.50
2021,05,25,15,41,782.60
2021,05,25,15,42,781.90
2021,05,25,15,43,780.00
2021,05,25,15,44,779.20
2021,05,25,15,45,777.00
2021,05,25,15,46,776.10
2021,05,25,15,47,773.80
2021,05,25,15,48,772.30
2021,05,25,15,49,770.40
2021,05,25,15,50,768.20
2021,05,25,15,51,764.80
2021,05,25,15,52,763.00
2021,05,25,15,53,762.40
2021,05,25,15,54,761.00
2021,05,25,15,55,758.50
2021,05,25,15,56,754.70
2021,05,25,15,57,751.90
2021,05,25,15,58,751.80
2021,05,25,15,59,749.20
2021,05,25,16,00,748.50
2021,05,25,16,01,743.50
2021,05,25,16,02,741.40
2021,05,25,16,03,740.00
2021,05,25,16,04,738.90
2021,05,25,16,05,737.30
2021,05,25,16,06,735.40
2021,05,25,16,07,733.30
2021,05,25,16,08,729.20
2021,05,25,16,09,728.00
2021,05,25,16,10,728.00
2021,05,25,16,11,726.50
2021,05,25,16,12,723.10
2021,05,25,16,13,721.40
2021,05,25,16,14,718.30
2021,05,25,16,15,715.40
2021,05,25,16,16,714.10
2021,05,25,16,17,711.70
2021,05,25,16,18,709.20
2021,05,25,16,19,707.00
2021,05,25,16,20,706.20
2021,05,25,16,21,704.00
2021,05,25,16,22,701.70
2021,05,25,16,23,700.20
2021,05,25,16,24,698.30
2021,05,25,16,25,693.30
2021,05,25,16,26,692.70
2021,05,25,16,27,690.00
2021,05,25,16,28,686.60
2021,05,25,16,29,685.10
2021,05,25,16,30,684.00
2021,05,25,16,31,682.60
2021,05,25,16,32,680.50
2021,05,25,16,33,677.30
2021,05,25,16,34,674.80
2021,05,25,16,35,672.60
2021,05,25,16,36,670.70
2021,05,25,16,37,669.20
2021,05,25,16,38,666.00
2021,05,25,16,39,662.10
2021,05,25,16,40,661.00
2021,05,25,16,41,659.30
2021,05,25,16,42,656.20
2021,05,25,16,43,655.60
2021,05,25,16,44,652.00
2021,05,25,16,45,647.10
2021,05,25,16,46,640.10
2021,05,25,16,47,643.00
2021,05,25,16,48,624.10
2021,05,25,16,49,621.20
2021,05,25,16,50,635.80
2021,05,25,16,51,633.20
2021,05,25,16,52,631.00
2021,05,25,16,53,629.70
2021,05,25,16,54,625.20
2021,05,25,16,55,623.10
2021,05,25,16,56,620.30
2021,05,25,16,57,617.60
2021,05,25,16,58,615.40
2021,05,25,16,59,612.20
2021,05,25,17,00,609.80
2021,05,25,17,01,608.00
2021,05,25,17,02,607.40
2021,05,25,17,03,604.80
2021,05,25,17,04,599.50
2021,05,25,17,05,596.00
2021,05,25,17,06,596.00
2021,05,25,17,07,592.60
2021,05,25,17,08,590.90
2021,05,25,17,09,588.70